Dewar Lakes, Nunavut

7:46 PM EDT on August 23, 2017 (GMT -0400)
Dewar Lakes

Weather History for CWUW - October, 2012

Change the Weather History Date:

Tuesday, October 9, 2012

  Actual Average Record
Temperature  
Mean Temperature 10 °F -  
Max Temperature 15 °F 13 °F 32 °F (2010)
Min Temperature 6 °F 3 °F 6 °F (2012)
Degree Days  
Heating Degree Days 54    
Moisture  
Dew Point -    
Average Humidity    
Maximum Humidity    
Minimum Humidity    
Precipitation  
Precipitation 0.00 in 0.03 in - ()
Sea Level Pressure  
Sea Level Pressure 29.97 in    
Wind  
Wind Speed 7 mph ()    
Max Wind Speed 15 mph    
Max Gust Speed -    
Visibility 9.0 miles    
Events Snow    
Averages and records for this station are not official NWS values.
T = Trace of Precipitation, MM = Missing Value Source: Averaged Metar Reports

Daily Weather History Graph

Daily Weather History Graph

Search for Another Location

Airport or City:

Trip Planner

Search our weather history database for the weather conditions in past years. The results will help you decide how hot, cold, wet, or windy it might be!

Date:

Astronomy

Oct. 09, 2012 Rise Set
Actual Time 7:30 AM EDT 5:31 PM EDT
Civil Twilight 6:32 AM EDT 6:29 PM EDT
Nautical Twilight 5:25 AM EDT 7:35 PM EDT
Astronomical Twilight 4:14 AM EDT 8:45 PM EDT
Moon 11:34 PM EDT (10/9) 4:37 PM EDT (10/9)
Length of Visible Light 11h 56m
Length of Day
10h 01m
Last Quarter, 37% of the Moon is Illuminated
Oct 9
Last Quarter
Oct 15
New
Oct 21
First Quarter
Oct 29
Full
Nov 6
Last Quarter

Hourly Weather History & Observations

Time (EDT) Temp. Windchill Dew Point Humidity Pressure Visibility Wind Dir Wind Speed Gust Speed Precip Events Conditions
12:00 AM 15.8 °F 8.6 °F - N/A% 29.94 in 9.0 mi ENE 4.6 mph - N/A   Clear
1:31 AM 14.0 °F 8.2 °F - N/A% 29.79 in 9.0 mi NE 3.5 mph - N/A   Clear
2:00 AM 14.0 °F 2.9 °F - N/A% 29.95 in 9.0 mi North 8.1 mph - N/A   Clear
2:10 AM 14.0 °F 2.9 °F - N/A% 29.79 in 9.0 mi North 8.1 mph - N/A   Clear
3:00 AM 14.0 °F 6.5 °F - N/A% 29.96 in 9.0 mi NNE 4.6 mph - N/A   Clear
4:00 AM 14.0 °F 5.1 °F - N/A% 29.96 in 9.0 mi North 5.8 mph - N/A   Clear
5:00 AM 14 °F - - % 29.97 in 9 mi North 6.9 mph - -  
5:00 AM 14.0 °F 3.9 °F - N/A% 29.97 in 9.0 mi North 6.9 mph - N/A   Clear
6:00 AM 14.0 °F 2.9 °F - N/A% 29.97 in 9.0 mi NNE 8.1 mph - N/A   Clear
7:00 AM 14.0 °F 2.9 °F - N/A% 29.98 in 9.0 mi North 8.1 mph - N/A   Clear
7:03 AM 14.0 °F 2.9 °F - N/A% 29.81 in 9.0 mi North 8.1 mph - N/A Snow Light Snow
7:20 AM 14.0 °F 3.9 °F - N/A% 29.82 in 9.0 mi North 6.9 mph - N/A   Clear
8:00 AM 13 °F - - % 29.98 in 9 mi North 6.9 mph - -  
8:00 AM 14.0 °F 3.9 °F - N/A% 29.98 in 9.0 mi North 6.9 mph - N/A   Clear
9:00 AM 14.0 °F 3.9 °F - N/A% 29.99 in 9.0 mi North 6.9 mph - N/A   Clear
10:00 AM 12.2 °F 2.9 °F - N/A% 29.99 in 9.0 mi North 5.8 mph - N/A   Clear
11:00 AM 13 °F - - % 29.99 in 9 mi NNW 6.9 mph - -  
11:00 AM 12.2 °F 0.7 °F - N/A% 29.99 in 9.0 mi NNW 8.1 mph - N/A   Clear
12:00 PM 12.2 °F 1.7 °F - N/A% 29.99 in 9.0 mi NW 6.9 mph - N/A   Clear
1:00 PM 14.0 °F 3.9 °F - N/A% 29.99 in 9.0 mi WNW 6.9 mph - N/A   Clear
2:00 PM 12 °F - - % 30.00 in 9 mi West 8.1 mph - -  
2:00 PM 12.2 °F 0.7 °F - N/A% 30.00 in 9.0 mi West 8.1 mph - N/A   Clear
3:00 PM 8.6 °F -7.0 °F - N/A% 30.01 in 9.0 mi NW 12.7 mph - N/A   Clear
4:00 PM 6.8 °F -10.7 °F - N/A% 30.01 in 9.0 mi NNW 15.0 mph - N/A   Clear
5:00 PM 9 °F - - % 30.01 in 9 mi NNW 13.8 mph - -  
5:00 PM 8.6 °F -7.7 °F - N/A% 30.01 in 9.0 mi NNW 13.8 mph - N/A   Clear
6:00 PM 8.6 °F -7.7 °F - N/A% 30.02 in 9.0 mi NNW 13.8 mph - N/A   Clear
7:00 PM 10.4 °F -4.8 °F - N/A% 30.03 in 9.0 mi NNW 12.7 mph - N/A   Clear
8:00 PM 12 °F - - % 30.04 in 9 mi NNW 10.4 mph - -  
8:00 PM 12.2 °F -0.2 °F - N/A% 30.04 in 9.0 mi NNW 9.2 mph - N/A   Clear
9:00 PM 12.2 °F 0.7 °F - N/A% 30.04 in 9.0 mi NW 8.1 mph - N/A   Clear
10:00 PM 12.2 °F 0.7 °F - N/A% 30.04 in 9.0 mi NNW 8.1 mph - N/A   Clear
11:00 PM 14 °F - - % 30.03 in 9 mi NNW 6.9 mph - -  
11:00 PM 14.0 °F 3.9 °F - N/A% 30.03 in 9.0 mi NNW 6.9 mph - N/A   Clear